Météo par heure à Abay

Ce jour, 3 Décembre, Jeudi

Heure Température Précipitation Vent Pression Humidité
00:00 +2°C° 0 mm 1 m/s 696 mmHg 58%
01:00 +2°C° 0 mm 1 m/s 696 mmHg 58%
02:00 +2°C° 0 mm 1 m/s 696 mmHg 58%
03:00 +2°C° 0 mm 1 m/s 696 mmHg 59%
04:00 +2°C° 0 mm 1 m/s 696 mmHg 60%
05:00 +2°C° 0 mm 1 m/s 696 mmHg 66%
06:00 +2°C° 0 mm 1 m/s 696 mmHg 66%
07:00 +3°C° 0 mm 1 m/s 696 mmHg 65%
08:00 +3°C° 0 mm 1 m/s 696 mmHg 65%
09:00 +4°C° 0 mm 1 m/s 696 mmHg 65%
10:00 +5°C° 0 mm 1 m/s 696 mmHg 65%
11:00 +5°C° 0 mm 0 m/s 695 mmHg 66%
12:00 +5°C° 0 mm 0 m/s 695 mmHg 67%
13:00 +5°C° 0 mm 0 m/s 695 mmHg 69%
14:00 +5°C° 0 mm 0 m/s 695 mmHg 70%
15:00 +5°C° 0 mm 1 m/s 695 mmHg 71%
16:00 +4°C° 0 mm 1 m/s 695 mmHg 72%
17:00 +3°C° 0 mm 1 m/s 695 mmHg 73%
18:00 +3°C° 0 mm 1 m/s 695 mmHg 72%
19:00 +2°C° 0 mm 1 m/s 695 mmHg 72%
20:00 +2°C° 0 mm 1 m/s 695 mmHg 71%
21:00 +2°C° 0 mm 1 m/s 695 mmHg 72%
22:00 +2°C° 0 mm 1 m/s 695 mmHg 73%
23:00 +2°C° 0 mm 1 m/s 695 mmHg 74%

Demain, 4 Décembre, Vendredi

Heure Température Précipitation Vent Pression Humidité
00:00 +1°C° 0 mm 1 m/s 694 mmHg 76%
01:00 +1°C° 0 mm 1 m/s 694 mmHg 78%
02:00 +1°C° 0 mm 1 m/s 694 mmHg 79%
03:00 +1°C° 0 mm 1 m/s 694 mmHg 80%
04:00 +1°C° 0 mm 1 m/s 694 mmHg 81%
05:00 0°C° 0 mm 0 m/s 694 mmHg 81%
06:00 0°C° 0 mm 0 m/s 694 mmHg 81%
07:00 +1°C° 0 mm 0 m/s 694 mmHg 81%
08:00 +1°C° 0 mm 0 m/s 694 mmHg 81%
09:00 +2°C° 0 mm 0 m/s 694 mmHg 81%
10:00 +2°C° 0 mm 0 m/s 693 mmHg 82%
11:00 +4°C° 0 mm 1 m/s 693 mmHg 82%
12:00 +3°C° 0.1 mm 0 m/s 693 mmHg 84%
13:00 +3°C° 0.1 mm 0 m/s 693 mmHg 86%
14:00 +3°C° 0.1 mm 0 m/s 692 mmHg 88%
15:00 +2°C° 0.4 mm 0 m/s 693 mmHg 91%
16:00 +3°C° 0.4 mm 1 m/s 693 mmHg 94%
17:00 +2°C° 0.4 mm 1 m/s 693 mmHg 97%
18:00 +2°C° 0.9 mm 1 m/s 694 mmHg 97%
19:00 +2°C° 0.9 mm 1 m/s 694 mmHg 97%
20:00 +1°C° 0.9 mm 1 m/s 694 mmHg 97%
21:00 +1°C° 0.4 mm 1 m/s 694 mmHg 97%
22:00 +1°C° 0.4 mm 1 m/s 694 mmHg 97%
23:00 0°C° 0.4 mm 1 m/s 694 mmHg 97%

Après-demain, 5 Décembre, Samedi

Heure Température Précipitation Vent Pression Humidité
00:00 0°C° 0.3 mm 1 m/s 694 mmHg 97%
01:00 0°C° 0.3 mm 1 m/s 694 mmHg 97%
02:00 0°C° 0.3 mm 1 m/s 694 mmHg 97%
03:00 0°C° 0.2 mm 1 m/s 694 mmHg 94%
04:00 -2°C° 0.2 mm 2 m/s 694 mmHg 91%
05:00 -2°C° 0.2 mm 2 m/s 694 mmHg 88%
06:00 -2°C° 0 mm 2 m/s 694 mmHg 89%
07:00 0°C° 0 mm 1 m/s 695 mmHg 90%
08:00 -1°C° 0 mm 1 m/s 695 mmHg 90%
09:00 0°C° 0.1 mm 1 m/s 695 mmHg 91%
10:00 -2°C° 0.1 mm 2 m/s 695 mmHg 91%
11:00 -1°C° 0.1 mm 2 m/s 695 mmHg 91%
12:00 -1°C° 0.2 mm 2 m/s 695 mmHg 91%
13:00 -2°C° 0.2 mm 2 m/s 695 mmHg 90%
14:00 -2°C° 0.2 mm 3 m/s 695 mmHg 90%
15:00 -3°C° 0.1 mm 2 m/s 695 mmHg 89%
16:00 -4°C° 0.1 mm 2 m/s 696 mmHg 88%
17:00 -5°C° 0.1 mm 2 m/s 696 mmHg 87%
18:00 -5°C° 0 mm 2 m/s 696 mmHg 85%
19:00 -3°C° 0 mm 1 m/s 696 mmHg 84%
20:00 -4°C° 0 mm 1 m/s 696 mmHg 83%
21:00 -4°C° 0 mm 1 m/s 696 mmHg 82%
22:00 -4°C° 0 mm 1 m/s 696 mmHg 81%
23:00 -4°C° 0 mm 1 m/s 696 mmHg 80%

6 Décembre, Dimanche

Heure Température Précipitation Vent Pression Humidité
00:00 -6°C° 0 mm 2 m/s 696 mmHg 81%
01:00 -6°C° 0 mm 2 m/s 696 mmHg 81%
02:00 -6°C° 0 mm 2 m/s 696 mmHg 82%
03:00 -6°C° 0 mm 2 m/s 696 mmHg 82%
04:00 -7°C° 0 mm 2 m/s 696 mmHg 81%
05:00 -6°C° 0 mm 1 m/s 696 mmHg 81%
06:00 -4°C° 0 mm 1 m/s 697 mmHg 80%
07:00 -4°C° 0 mm 1 m/s 697 mmHg 80%
08:00 -4°C° 0 mm 1 m/s 697 mmHg 79%
09:00 -2°C° 0 mm 1 m/s 697 mmHg 80%
10:00 -1°C° 0 mm 1 m/s 697 mmHg 80%
11:00 0°C° 0 mm 1 m/s 697 mmHg 81%
12:00 0°C° 0 mm 1 m/s 697 mmHg 82%
13:00 0°C° 0 mm 1 m/s 697 mmHg 84%
14:00 +1°C° 0 mm 1 m/s 696 mmHg 85%
15:00 0°C° 0 mm 1 m/s 697 mmHg 84%
16:00 -1°C° 0 mm 1 m/s 697 mmHg 83%
17:00 -1°C° 0 mm 1 m/s 697 mmHg 81%
18:00 -1°C° 0 mm 1 m/s 697 mmHg 80%
19:00 -1°C° 0 mm 1 m/s 697 mmHg 79%
20:00 -1°C° 0 mm 1 m/s 697 mmHg 79%
21:00 -3°C° 0 mm 2 m/s 697 mmHg 78%
22:00 -3°C° 0 mm 2 m/s 697 mmHg 78%
23:00 -3°C° 0 mm 2 m/s 696 mmHg 77%

7 Décembre, Lundi

Heure Température Précipitation Vent Pression Humidité
00:00 -3°C° 0 mm 2 m/s 696 mmHg 76%
01:00 -3°C° 0 mm 2 m/s 696 mmHg 76%
02:00 -3°C° 0 mm 2 m/s 695 mmHg 75%
03:00 -3°C° 0 mm 2 m/s 695 mmHg 75%
04:00 -1°C° 0 mm 1 m/s 695 mmHg 74%
05:00 -1°C° 0 mm 1 m/s 694 mmHg 74%
06:00 -1°C° 0 mm 1 m/s 694 mmHg 74%
07:00 -1°C° 0 mm 1 m/s 694 mmHg 74%
08:00 -1°C° 0 mm 1 m/s 694 mmHg 74%
09:00 0°C° 0 mm 1 m/s 693 mmHg 75%
10:00 +1°C° 0 mm 1 m/s 693 mmHg 77%
11:00 +2°C° 0 mm 1 m/s 693 mmHg 79%
12:00 +2°C° 0 mm 1 m/s 692 mmHg 80%
13:00 +2°C° 0 mm 1 m/s 692 mmHg 81%
14:00 +2°C° 0 mm 1 m/s 691 mmHg 83%
15:00 +2°C° 0 mm 1 m/s 692 mmHg 83%
16:00 0°C° 0 mm 0 m/s 692 mmHg 83%
17:00 -1°C° 0 mm 0 m/s 692 mmHg 83%
18:00 0°C° 0 mm 1 m/s 692 mmHg 82%
19:00 0°C° 0 mm 1 m/s 693 mmHg 82%
20:00 0°C° 0 mm 1 m/s 693 mmHg 81%
21:00 0°C° 0 mm 1 m/s 693 mmHg 82%
22:00 0°C° 0 mm 1 m/s 693 mmHg 83%
23:00 -1°C° 0 mm 1 m/s 693 mmHg 84%

8 Décembre, Mardi

Heure Température Précipitation Vent Pression Humidité
00:00 -1°C° 0 mm 1 m/s 693 mmHg 83%
01:00 -1°C° 0 mm 1 m/s 693 mmHg 83%
02:00 -1°C° 0 mm 1 m/s 694 mmHg 82%
03:00 -1°C° 0 mm 1 m/s 694 mmHg 83%
04:00 -1°C° 0 mm 1 m/s 694 mmHg 84%
05:00 -1°C° 0 mm 1 m/s 694 mmHg 85%
06:00 -1°C° 0 mm 1 m/s 694 mmHg 84%
07:00 -1°C° 0 mm 1 m/s 695 mmHg 83%
08:00 -2°C° 0 mm 0 m/s 695 mmHg 83%
09:00 -2°C° 0 mm 0 m/s 695 mmHg 84%
10:00 0°C° 0 mm 1 m/s 695 mmHg 85%
11:00 +1°C° 0 mm 1 m/s 695 mmHg 86%
12:00 +1°C° 0.1 mm 1 m/s 695 mmHg 89%
13:00 +1°C° 0.1 mm 1 m/s 695 mmHg 92%
14:00 +1°C° 0.1 mm 1 m/s 695 mmHg 95%
15:00 0°C° 0.2 mm 1 m/s 696 mmHg 96%
16:00 -2°C° 0.2 mm 0 m/s 696 mmHg 97%
17:00 -2°C° 0.2 mm 0 m/s 697 mmHg 98%
18:00 -1°C° 0.3 mm 1 m/s 698 mmHg 97%
19:00 -2°C° 0.3 mm 1 m/s 698 mmHg 97%
20:00 -2°C° 0.3 mm 1 m/s 699 mmHg 97%
21:00 -2°C° 0.3 mm 1 m/s 699 mmHg 96%
22:00 -2°C° 0.3 mm 1 m/s 700 mmHg 94%
23:00 -2°C° 0.3 mm 1 m/s 701 mmHg 92%
Voir plus

Nous avons besoin de votre consentement

Meteoprog et ses fournisseurs de services peuvent stocker et accéder à des données personnelles telles que des cookies, des identifiants d'appareils ou d'autres technologies similaires sur votre appareil et traiter ces données pour personnaliser le contenu et les publicités, ainsi que pour fournir des fonctionnalités de médias sociaux et analyser le trafic.

  • Stocker et/ou accéder à des informations sur votre appareil

    Des cookies, des identifiants d'appareils ou d'autres informations peuvent être stockés ou accessibles sur votre appareil aux fins indiquées ci-dessus.

  • Annonces et contenus personnalisés, mesure des annonces et des contenus, connaissance de l'audience et développement de produits

    Les annonces et le contenu peuvent être personnalisés en fonction d'un profil. D'autres données peuvent être ajoutées pour mieux personnaliser les annonces et le contenu. Les performances des publicités et du contenu peuvent être mesurées. Il est possible d'obtenir des informations sur le public qui a vu les publicités et le contenu. Ces données peuvent être utilisées pour développer ou améliorer l'expérience de l'utilisateur, les systèmes et les logiciels.

En cliquant sur "J'accepte", vous autorisez l'utilisation de cookies, des identifiants d'appareils, des balises web ou d'autres technologies similaires. Vos paramètres peuvent être modifiés dans le navigateur de votre appareil.

Dans certains cas, des intérêts légitimes peuvent être invoqués plutôt qu'un consentement. Vous pouvez en savoir plus à ce sujet dans notre Politique de confidentialité et de cookies.